Regional Weather Roundup
Issued by NWS

Home | Current Version | Previous Version | Text Only | Print | Product List | Glossary On
Versions: 1 2 3 4 5 6 7 8 9 10 11 12 13 14 15 16 17 18 19 20 21 22 23 24 25 26 27 28 29 30 31 32 33 34 35 36 37 38 39 40 41 42 43 44 45 46 47 48 49 50
000
ASUS43 KIND 271709
RWRIN

WEATHER ROUNDUP FOR INDIANA
NATIONAL WEATHER SERVICE INDIANAPOLIS IN
1200 PM EST TUE JAN 27 2015

NOTE: "FAIR" INDICATES FEW OR NO CLOUDS BELOW 12,000 FEET WITH NO
SIGNIFICANT WEATHER AND/OR OBSTRUCTIONS TO VISIBILITY.

* - STATION DOES NOT REPORT WEATHER SUCH AS PRECIPITATION OR FOG.

+ - STATION NOT QUALITY CONTROLLED BY THE NATIONAL WEATHER SERVICE.
    USE DATA WITH CAUTION...ESPECIALLY DEWPOINT AND RELATIVE
    HUMIDITY OBSERVATIONS.

INZ001>003-010>013-019-020-271800-
NORTHWEST INDIANA

CITY           SKY/WX    TMP DP  RH WIND       PRES   REMARKS
GARY /AIRPORT/ PTSUNNY   30  14  51 E7        30.17R WCI  23
KNOX *+        SUNNY     27  -4  25 N3        30.14R
LA PORTE +     SUNNY     29  13  50 E6        30.15R WCI  23
MICHIGAN CITY+ SUNNY     30   5  34 E5        30.15S WCI  25
MONTICELLO +   CLOUDY    25  13  61 E5        30.14R WCI  19
RENSSELAER +   CLOUDY    28  21  74 E3        30.15R
VALPARAISO     MOSUNNY   27  11  51 NE6       30.15R WCI  20

$$

LMZ046-743>745-271800-
SOUTHERN LAKE MICHIGAN

STATION/POSITION TIME  TEMP WIND        PRES
                       AIR  DIR/SP/G
                 (UTC) (F)  (DEG/KT/KT) (MB)
MICHIGAN CITY    1700   26   10/  6/  7   N/A

$$

INZ004-005-014>016-021>024-271800-
NORTH CENTRAL INDIANA

CITY           SKY/WX    TMP DP  RH WIND       PRES   REMARKS
ELKHART        SUNNY     25   9  50 E6        30.15R WCI  18
GOSHEN         SUNNY     23  14  68 E6        30.13R WCI  16
LOGANSPORT +   CLOUDY    25  12  58 E5        30.14R WCI  19
PERU/GRISSOM   CLOUDY    23  11  60 E3        30.12R
ROCHESTER +    SUNNY     28  14  54 NE5       30.13S WCI  23
SOUTH BEND     SUNNY     27  10  49 NE7       30.14R WCI  19
WARSAW +       SUNNY     27  14  59 E6        30.13R WCI  20

$$

INZ006>009-017-018-025>027-271800-
NORTHEAST INDIANA

CITY           SKY/WX    TMP DP  RH WIND       PRES   REMARKS
ANGOLA *+      SUNNY     19   9  63 NE7       30.10F WCI  10
AUBURN +       SUNNY     25  14  63 NE7       30.12F WCI  17
FORT WAYNE     MOSUNNY   22  13  68 E3        30.12F
HUNTINGTON +   MOSUNNY   22   9  56 NE6       30.12S WCI  14

$$

INZ028-029-035-036-043>045-051>053-271800-
WEST CENTRAL INDIANA

CITY           SKY/WX    TMP DP  RH WIND       PRES   REMARKS
CRAWFORDSVL +  CLOUDY    27  19  74 NE6       30.12R WCI  20
GREENCASTLE +  CLOUDY    30  23  74 NE6       30.11R HAZE    WCI  24
LAFAYETTE      CLOUDY    26  21  81 NE6       30.14R WCI  19
TERRE HAUTE    CLOUDY    31  27  85 N6        30.13R WCI  25

$$

INZ030>032-037>040-046>048-054>057-064-065-271800-
CENTRAL INDIANA

CITY           SKY/WX    TMP DP  RH WIND       PRES   REMARKS
ANDERSON       PTSUNNY   25  10  54 E6        30.12R WCI  18
CP ATTERBURY + CLOUDY    28  12  50 NE5       30.11S WCI  23
COLUMBUS       PTSUNNY   27  12  54 NE6       30.12R WCI  20
INDIANAPOLIS   CLOUDY    26  21  81 NE5       30.10R WCI  20
-EAGLE CREEK   CLOUDY    27  19  72 MISG      30.10R
KOKOMO *+      CLOUDY    21  14  73 E5        30.13R WCI  15
MARION +       CLOUDY    24  12  62 NE6       30.12R WCI  17
MT COMFORT *+  PTSUNNY   28   5  37 NE6       30.10S WCI  22
SHELBYVILLE    CLOUDY    27  15  61 E8        30.10R WCI  19
ZIONSVILLE +   CLOUDY    26  10  50 E6        30.11R WCI  20

$$

INZ033-034-041-042-049-050-058-059-271800-
EAST CENTRAL INDIANA

CITY           SKY/WX    TMP DP  RH WIND       PRES   REMARKS
MUNCIE         SUNNY     23  13  65 NE7       30.11R WCI  15

$$

INZ060-061-067>069-081>083-085>088-271800-
SOUTHWEST INDIANA

CITY           SKY/WX    TMP DP  RH WIND       PRES   REMARKS
EVANSVILLE     CLOUDY    35  30  82 N9        30.13R WCI  28
HUNTINGBURG *+ CLOUDY    30  27  86 CALM      30.11R
WASHINGTON +   CLOUDY    31  27  86 N6        30.12R WCI  25

$$

INZ062-063-066-070>080-084-089>092-271800-
SOUTH CENTRAL AND SOUTHEAST INDIANA

CITY           SKY/WX    TMP DP  RH WIND       PRES   REMARKS
BLOOMINGTON    CLOUDY    30  25  81 E6        30.09R WCI  24
NORTH VERNON + CLOUDY    28  14  54 NE5       30.10  WCI  23

$$




USA.gov is the U.S. government's official web portal to all federal, state and local government web resources and services.